datetime,total release
1977-12-01,19.0
1977-12-02,19.0
1977-12-03,19.0
1977-12-04,19.0
1977-12-05,19.0
1977-12-06,19.0
1977-12-07,22.0
1977-12-08,26.0
1977-12-09,26.0
1977-12-10,26.0
1977-12-11,26.0
1977-12-12,26.0
1977-12-13,26.0
1977-12-14,28.0
1977-12-15,26.0
1977-12-16,26.0
1977-12-17,26.0
1977-12-18,27.0
1977-12-19,24.0
1977-12-20,26.0
1977-12-21,26.0
1977-12-22,27.0
1977-12-23,27.0
1977-12-24,25.0
1977-12-25,25.0
1977-12-26,25.0
1977-12-27,25.0
1977-12-28,24.0
1977-12-29,24.0
1977-12-30,24.0
1977-12-31,25.0
1978-01-01,20.0
1978-01-02,22.0
1978-01-03,21.0
1978-01-04,21.0
1978-01-05,22.0
1978-01-06,21.0
1978-01-07,22.0
1978-01-08,21.0
1978-01-09,21.0
1978-01-10,21.0
1978-01-11,21.0
1978-01-12,21.0
1978-01-13,21.0
1978-01-14,21.0
1978-01-15,20.0
1978-01-16,21.0
1978-01-17,22.0
1978-01-18,19.0
1978-01-19,20.0
1978-01-20,20.0
1978-01-21,20.0
1978-01-22,20.0
1978-01-23,20.0
1978-01-24,115.0
1978-01-25,204.0
1978-01-26,202.0
1978-01-27,202.0
1978-01-28,203.0
1978-01-29,213.0
1978-01-30,202.0
1978-01-31,96.0
1978-02-01,19.0
1978-02-02,25.0
1978-02-03,24.0
1978-02-04,23.0
1978-02-05,23.0
1978-02-06,23.0
1978-02-07,23.0
1978-02-08,23.0
1978-02-09,23.0
1978-02-10,23.0
1978-02-11,23.0
1978-02-12,24.0
1978-02-13,23.0
1978-02-14,22.0
1978-02-15,23.0
1978-02-16,54.0
1978-02-17,80.0
1978-02-18,80.0
1978-02-19,79.0
1978-02-20,79.0
1978-02-21,79.0
1978-02-22,78.0
1978-02-23,78.0
1978-02-24,83.0
1978-02-25,89.0
1978-02-26,90.0
1978-02-27,89.0
1978-02-28,75.0
1978-03-01,95.0
1978-03-02,103.0
1978-03-03,103.0
1978-03-04,102.0
1978-03-05,102.0
1978-03-06,102.0
1978-03-07,98.0
1978-03-08,98.0
1978-03-09,154.0
1978-03-10,196.0
1978-03-11,200.0
1978-03-12,200.0
1978-03-13,200.0
1978-03-14,201.0
1978-03-15,199.0
1978-03-16,201.0
1978-03-17,207.0
1978-03-18,203.0
1978-03-19,203.0
1978-03-20,203.0
1978-03-21,203.0
1978-03-22,204.0
1978-03-23,200.0
1978-03-24,203.0
1978-03-25,201.0
1978-03-26,199.0
1978-03-27,201.0
1978-03-28,176.0
1978-03-29,202.0
1978-03-30,203.0
1978-03-31,202.0
1978-04-01,206.0
1978-04-02,206.0
1978-04-03,206.0
1978-04-04,207.0
1978-04-05,206.0
1978-04-06,206.0
1978-04-07,206.0
1978-04-08,205.0
1978-04-09,207.0
1978-04-10,205.0
1978-04-11,205.0
1978-04-12,206.0
1978-04-13,203.0
1978-04-14,206.0
1978-04-15,207.0
1978-04-16,206.0
1978-04-17,453.0
1978-04-18,465.0
1978-04-19,483.0
1978-04-20,685.0
1978-04-21,667.0
1978-04-22,667.0
1978-04-23,665.0
1978-04-24,759.0
1978-04-25,754.0
1978-04-26,754.0
1978-04-27,753.0
1978-04-28,753.0
1978-04-29,754.0
1978-04-30,755.0
1978-05-01,771.0
1978-05-02,862.0
1978-05-03,974.0
1978-05-04,1068.0
1978-05-05,1164.0
1978-05-06,1265.0
1978-05-07,1263.0
1978-05-08,712.0
1978-05-09,717.0
1978-05-10,814.0
1978-05-11,1066.0
1978-05-12,1116.0
1978-05-13,1117.0
1978-05-14,1123.0
1978-05-15,934.0
1978-05-16,745.0
1978-05-17,405.0
1978-05-18,425.0
1978-05-19,421.0
1978-05-20,419.0
1978-05-21,231.0
1978-05-22,226.0
1978-05-23,251.0
1978-05-24,247.0
1978-05-25,234.0
1978-05-26,249.0
1978-05-27,244.0
1978-05-28,239.0
1978-05-29,246.0
1978-05-30,125.0
1978-05-31,226.0
1978-06-01,217.0
1978-06-02,522.0
1978-06-03,650.0
1978-06-04,351.0
1978-06-05,373.0
1978-06-06,416.0
1978-06-07,567.0
1978-06-08,563.0
1978-06-09,448.0
1978-06-10,327.0
1978-06-11,367.0
1978-06-12,528.0
1978-06-13,345.0
1978-06-14,270.0
1978-06-15,264.0
1978-06-16,314.0
1978-06-17,301.0
1978-06-18,337.0
1978-06-19,275.0
1978-06-20,335.0
1978-06-21,290.0
1978-06-22,279.0
1978-06-23,277.0
1978-06-24,294.0
1978-06-25,276.0
1978-06-26,267.0
1978-06-27,270.0
1978-06-28,268.0
1978-06-29,271.0
1978-06-30,269.0
1978-07-01,283.0
1978-07-02,260.0
1978-07-03,299.0
1978-07-04,377.0
1978-07-05,459.0
1978-07-06,476.0
1978-07-07,519.0
1978-07-08,502.0
1978-07-09,513.0
1978-07-10,479.0
1978-07-11,476.0
1978-07-12,491.0
1978-07-13,477.0
1978-07-14,481.0
1978-07-15,474.0
1978-07-16,457.0
1978-07-17,474.0
1978-07-18,484.0
1978-07-19,485.0
1978-07-20,504.0
1978-07-21,480.0
1978-07-22,499.0
1978-07-23,455.0
1978-07-24,449.0
1978-07-25,429.0
1978-07-26,445.0
1978-07-27,523.0
1978-07-28,534.0
1978-07-29,498.0
1978-07-30,476.0
1978-07-31,465.0
1978-08-01,479.0
1978-08-02,508.0
1978-08-03,531.0
1978-08-04,543.0
1978-08-05,538.0
1978-08-06,510.0
1978-08-07,536.0
1978-08-08,544.0
1978-08-09,518.0
1978-08-10,334.0
1978-08-11,321.0
1978-08-12,296.0
1978-08-13,219.0
1978-08-14,109.0
1978-08-15,126.0
1978-08-16,136.0
1978-08-17,135.0
1978-08-18,143.0
1978-08-19,160.0
1978-08-20,177.0
1978-08-21,178.0
1978-08-22,317.0
1978-08-23,322.0
1978-08-24,283.0
1978-08-25,341.0
1978-08-26,363.0
1978-08-27,364.0
1978-08-28,335.0
1978-08-29,338.0
1978-08-30,332.0
1978-08-31,338.0
1978-09-01,341.0
1978-09-02,318.0
1978-09-03,315.0
1978-09-04,322.0
1978-09-05,278.0
1978-09-06,259.0
1978-09-07,260.0
1978-09-08,213.0
1978-09-09,192.0
1978-09-10,196.0
1978-09-11,182.0
1978-09-12,167.0
1978-09-13,152.0
1978-09-14,158.0
1978-09-15,163.0
1978-09-16,163.0
1978-09-17,161.0
1978-09-18,128.0
1978-09-19,116.0
1978-09-20,118.0
1978-09-21,117.0
1978-09-22,129.0
1978-09-23,127.0
1978-09-24,125.0
1978-09-25,128.0
1978-09-26,131.0
1978-09-27,131.0
1978-09-28,147.0
1978-09-29,141.0
1978-09-30,128.0
1978-10-01,121.0
1978-10-02,121.0
1978-10-03,111.0
1978-10-04,105.0
1978-10-05,109.0
1978-10-06,110.0
1978-10-07,115.0
1978-10-08,117.0
1978-10-09,118.0
1978-10-10,121.0
1978-10-11,122.0
1978-10-12,126.0
1978-10-13,97.0
1978-10-14,88.0
1978-10-15,87.0
1978-10-16,89.0
1978-10-17,83.0
1978-10-18,83.0
1978-10-19,86.0
1978-10-20,85.0
1978-10-21,86.0
1978-10-22,86.0
1978-10-23,85.0
1978-10-24,85.0
1978-10-25,86.0
1978-10-26,84.0
1978-10-27,85.0
1978-10-28,85.0
1978-10-29,86.0
1978-10-30,85.0
1978-10-31,52.0
1978-11-01,9.0
1978-11-02,9.0
1978-11-03,54.0
1978-11-04,85.0
1978-11-05,87.0
1978-11-06,87.0
1978-11-07,87.0
1978-11-08,87.0
1978-11-09,87.0
1978-11-10,86.0
1978-11-11,87.0
1978-11-12,86.0
1978-11-13,86.0
1978-11-14,86.0
1978-11-15,86.0
1978-11-16,159.0
1978-11-17,207.0
1978-11-18,209.0
1978-11-19,207.0
1978-11-20,207.0
1978-11-21,213.0
1978-11-22,209.0
1978-11-23,205.0
1978-11-24,208.0
1978-11-25,208.0
1978-11-26,208.0
1978-11-27,209.0
1978-11-28,208.0
1978-11-29,208.0
1978-11-30,208.0
1978-12-01,209.0
1978-12-02,210.0
1978-12-03,210.0
1978-12-04,209.0
1978-12-05,208.0
1978-12-06,209.0
1978-12-07,212.0
1978-12-08,207.0
1978-12-09,207.0
1978-12-10,207.0
1978-12-11,208.0
1978-12-12,208.0
1978-12-13,209.0
1978-12-14,208.0
1978-12-15,209.0
1978-12-16,205.0
1978-12-17,208.0
1978-12-18,209.0
1978-12-19,209.0
1978-12-20,210.0
1978-12-21,209.0
1978-12-22,207.0
1978-12-23,209.0
1978-12-24,209.0
1978-12-25,208.0
1978-12-26,209.0
1978-12-27,208.0
1978-12-28,211.0
1978-12-29,208.0
1978-12-30,207.0
1978-12-31,211.0
1979-01-01,208.0
1979-01-02,208.0
1979-01-03,197.0
1979-01-04,207.0
1979-01-05,208.0
1979-01-06,208.0
1979-01-07,209.0
1979-01-08,208.0
1979-01-09,207.0
1979-01-10,209.0
1979-01-11,209.0
1979-01-12,207.0
1979-01-13,209.0
1979-01-14,207.0
1979-01-15,209.0
1979-01-16,206.0
1979-01-17,207.0
1979-01-18,207.0
1979-01-19,207.0
1979-01-20,206.0
1979-01-21,207.0
1979-01-22,208.0
1979-01-23,208.0
1979-01-24,207.0
1979-01-25,208.0
1979-01-26,208.0
1979-01-27,207.0
1979-01-28,207.0
1979-01-29,207.0
1979-01-30,207.0
1979-01-31,207.0
1979-02-01,207.0
1979-02-02,205.0
1979-02-03,204.0
1979-02-04,205.0
1979-02-05,206.0
1979-02-06,207.0
1979-02-07,206.0
1979-02-08,206.0
1979-02-09,206.0
1979-02-10,206.0
1979-02-11,207.0
1979-02-12,207.0
1979-02-13,205.0
1979-02-14,203.0
1979-02-15,203.0
1979-02-16,208.0
1979-02-17,205.0
1979-02-18,206.0
1979-02-19,207.0
1979-02-20,205.0
1979-02-21,206.0
1979-02-22,205.0
1979-02-23,207.0
1979-02-24,208.0
1979-02-25,206.0
1979-02-26,207.0
1979-02-27,205.0
1979-02-28,206.0
1979-03-01,209.0
1979-03-02,204.0
1979-03-03,207.0
1979-03-04,207.0
1979-03-05,206.0
1979-03-06,205.0
1979-03-07,206.0
1979-03-08,210.0
1979-03-09,202.0
1979-03-10,205.0
1979-03-11,206.0
1979-03-12,207.0
1979-03-13,208.0
1979-03-14,206.0
1979-03-15,206.0
1979-03-16,205.0
1979-03-17,207.0
1979-03-18,207.0
1979-03-19,201.0
1979-03-20,201.0
1979-03-21,201.0
1979-03-22,201.0
1979-03-23,200.0
1979-03-24,203.0
1979-03-25,202.0
1979-03-26,198.0
1979-03-27,198.0
1979-03-28,197.0
1979-03-29,198.0
1979-03-30,198.0
1979-03-31,198.0
1979-04-01,198.0
1979-04-02,198.0
1979-04-03,198.0
1979-04-04,198.0
1979-04-05,198.0
1979-04-06,199.0
1979-04-07,198.0
1979-04-08,199.0
1979-04-09,196.0
1979-04-10,196.0
1979-04-11,199.0
1979-04-12,198.0
1979-04-13,195.0
1979-04-14,197.0
1979-04-15,197.0
1979-04-16,203.0
1979-04-17,208.0
1979-04-18,209.0
1979-04-19,208.0
1979-04-20,206.0
1979-04-21,207.0
1979-04-22,207.0
1979-04-23,201.0
1979-04-24,219.0
1979-04-25,227.0
1979-04-26,239.0
1979-04-27,241.0
1979-04-28,235.0
1979-04-29,234.0
1979-04-30,230.0
1979-05-01,229.0
1979-05-02,213.0
1979-05-03,391.0
1979-05-04,469.0
1979-05-05,479.0
1979-05-06,468.0
1979-05-07,684.0
1979-05-08,1047.0
1979-05-09,1074.0
1979-05-10,1077.0
1979-05-11,423.0
1979-05-12,219.0
1979-05-13,229.0
1979-05-14,226.0
1979-05-15,237.0
1979-05-16,240.0
1979-05-17,246.0
1979-05-18,588.0
1979-05-19,591.0
1979-05-20,591.0
1979-05-21,996.0
1979-05-22,990.0
1979-05-23,975.0
1979-05-24,1000.0
1979-05-25,1000.0
1979-05-26,1050.0
1979-05-27,950.0
1979-05-28,850.0
1979-05-29,346.0
1979-05-30,404.0
1979-05-31,443.0
1979-06-01,340.0
1979-06-02,355.0
1979-06-03,333.0
1979-06-04,346.0
1979-06-05,382.0
1979-06-06,397.0
1979-06-07,371.0
1979-06-08,403.0
1979-06-09,377.0
1979-06-10,409.0
1979-06-11,421.0
1979-06-12,488.0
1979-06-13,465.0
1979-06-14,475.0
1979-06-15,471.0
1979-06-16,463.0
1979-06-17,431.0
1979-06-18,246.0
1979-06-19,105.0
1979-06-20,180.0
1979-06-21,267.0
1979-06-22,350.0
1979-06-23,355.0
1979-06-24,370.0
1979-06-25,388.0
1979-06-26,454.0
1979-06-27,492.0
1979-06-28,495.0
1979-06-29,495.0
1979-06-30,490.0
1979-07-01,493.0
1979-07-02,498.0
1979-07-03,511.0
1979-07-04,467.0
1979-07-05,438.0
1979-07-06,500.0
1979-07-07,486.0
1979-07-08,497.0
1979-07-09,499.0
1979-07-10,511.0
1979-07-11,502.0
1979-07-12,495.0
1979-07-13,479.0
1979-07-14,457.0
1979-07-15,448.0
1979-07-16,445.0
1979-07-17,477.0
1979-07-18,492.0
1979-07-19,500.0
1979-07-20,462.0
1979-07-21,443.0
1979-07-22,501.0
1979-07-23,144.0
1979-07-24,268.0
1979-07-25,290.0
1979-07-26,363.0
1979-07-27,382.0
1979-07-28,391.0
1979-07-29,402.0
1979-07-30,427.0
1979-07-31,447.0
1979-08-01,461.0
1979-08-02,474.0
1979-08-03,509.0
1979-08-04,502.0
1979-08-05,469.0
1979-08-06,482.0
1979-08-07,481.0
1979-08-08,327.0
1979-08-09,306.0
1979-08-10,290.0
1979-08-11,283.0
1979-08-12,244.0
1979-08-13,193.0
1979-08-14,189.0
1979-08-15,198.0
1979-08-16,173.0
1979-08-17,170.0
1979-08-18,57.0
1979-08-19,99.0
1979-08-20,102.0
1979-08-21,126.0
1979-08-22,243.0
1979-08-23,235.0
1979-08-24,260.0
1979-08-25,249.0
1979-08-26,222.0
1979-08-27,263.0
1979-08-28,257.0
1979-08-29,239.0
1979-08-30,270.0
1979-08-31,307.0
1979-09-01,267.0
1979-09-02,293.0
1979-09-03,270.0
1979-09-04,235.0
1979-09-05,259.0
1979-09-06,252.0
1979-09-07,247.0
1979-09-08,235.0
1979-09-09,282.0
1979-09-10,284.0
1979-09-11,235.0
1979-09-12,208.0
1979-09-13,206.0
1979-09-14,215.0
1979-09-15,200.0
1979-09-16,203.0
1979-09-17,198.0
1979-09-18,209.0
1979-09-19,192.0
1979-09-20,194.0
1979-09-21,191.0
1979-09-22,194.0
1979-09-23,192.0
1979-09-24,167.0
1979-09-25,147.0
1979-09-26,147.0
1979-09-27,138.0
1979-09-28,140.0
1979-09-29,152.0
1979-09-30,161.0
1979-10-01,144.0
1979-10-02,129.0
1979-10-03,124.0
1979-10-04,125.0
1979-10-05,122.0
1979-10-06,120.0
1979-10-07,110.0
1979-10-08,119.0
1979-10-09,120.0
1979-10-10,125.0
1979-10-11,125.0
1979-10-12,121.0
1979-10-13,119.0
1979-10-14,120.0
1979-10-15,71.0
1979-10-16,46.0
1979-10-17,22.0
1979-10-18,15.0
1979-10-19,15.0
1979-10-20,15.0
1979-10-21,15.0
1979-10-22,15.0
1979-10-23,15.0
1979-10-24,15.0
1979-10-25,17.0
1979-10-26,17.0
1979-10-27,17.0
1979-10-28,17.0
1979-10-29,17.0
1979-10-30,17.0
1979-10-31,17.0
1979-11-01,17.0
1979-11-02,17.0
1979-11-03,17.0
1979-11-04,17.0
1979-11-05,17.0
1979-11-06,17.0
1979-11-07,17.0
1979-11-08,17.0
1979-11-09,17.0
1979-11-10,17.0
1979-11-11,17.0
1979-11-12,17.0
1979-11-13,17.0
1979-11-14,17.0
1979-11-15,17.0
1979-11-16,17.0
1979-11-17,17.0
1979-11-18,17.0
1979-11-19,27.0
1979-11-20,27.0
1979-11-21,27.0
1979-11-22,27.0
1979-11-23,27.0
1979-11-24,27.0
1979-11-25,27.0
1979-11-26,27.0
1979-11-27,27.0
1979-11-28,27.0
1979-11-29,30.0
1979-11-30,30.0
1979-12-01,30.0
1979-12-02,30.0
1979-12-03,30.0
1979-12-04,30.0
1979-12-05,30.0
1979-12-06,30.0
1979-12-07,30.0
1979-12-08,30.0
1979-12-09,30.0
1979-12-10,30.0
1979-12-11,30.0
1979-12-12,30.0
1979-12-13,30.0
1979-12-14,30.0
1979-12-15,30.0
1979-12-16,30.0
1979-12-17,25.0
1979-12-18,27.0
1979-12-19,28.0
1979-12-20,27.0
1979-12-21,27.0
1979-12-22,27.0
1979-12-23,27.0
1979-12-24,27.0
1979-12-25,27.0
1979-12-26,27.0
1979-12-27,27.0
1979-12-28,27.0
1979-12-29,27.0
1979-12-30,27.0
1979-12-31,27.0
1980-01-01,29.0
1980-01-02,29.0
1980-01-03,29.0
1980-01-04,29.0
1980-01-05,29.0
1980-01-06,29.0
1980-01-07,29.0
1980-01-08,28.0
1980-01-09,29.0
1980-01-10,29.0
1980-01-11,38.0
1980-01-12,107.0
1980-01-13,106.0
1980-01-14,106.0
1980-01-15,98.0
1980-01-16,102.0
1980-01-17,99.0
1980-01-18,132.0
1980-01-19,198.0
1980-01-20,206.0
1980-01-21,205.0
1980-01-22,206.0
1980-01-23,205.0
1980-01-24,205.0
1980-01-25,202.0
1980-01-26,206.0
1980-01-27,207.0
1980-01-28,206.0
1980-01-29,206.0
1980-01-30,206.0
1980-01-31,206.0
1980-02-01,205.0
1980-02-02,206.0
1980-02-03,200.0
1980-02-04,206.0
1980-02-05,205.0
1980-02-06,205.0
1980-02-07,206.0
1980-02-08,204.0
1980-02-09,206.0
1980-02-10,204.0
1980-02-11,206.0
1980-02-12,205.0
1980-02-13,205.0
1980-02-14,205.0
1980-02-15,205.0
1980-02-16,205.0
1980-02-17,206.0
1980-02-18,198.0
1980-02-19,199.0
1980-02-20,198.0
1980-02-21,200.0
1980-02-22,197.0
1980-02-23,200.0
1980-02-24,199.0
1980-02-25,202.0
1980-02-26,202.0
1980-02-27,202.0
1980-02-28,201.0
1980-02-29,202.0
1980-03-01,201.0
1980-03-02,201.0
1980-03-03,201.0
1980-03-04,201.0
1980-03-05,297.0
1980-03-06,309.0
1980-03-07,331.0
1980-03-08,391.0
1980-03-09,392.0
1980-03-10,395.0
1980-03-11,388.0
1980-03-12,393.0
1980-03-13,385.0
1980-03-14,391.0
1980-03-15,393.0
1980-03-16,397.0
1980-03-17,397.0
1980-03-18,394.0
1980-03-19,393.0
1980-03-20,392.0
1980-03-21,393.0
1980-03-22,394.0
1980-03-23,394.0
1980-03-24,389.0
1980-03-25,395.0
1980-03-26,389.0
1980-03-27,392.0
1980-03-28,393.0
1980-03-29,393.0
1980-03-30,393.0
1980-03-31,394.0
1980-04-01,279.0
1980-04-02,195.0
1980-04-03,195.0
1980-04-04,379.0
1980-04-05,385.0
1980-04-06,376.0
1980-04-07,700.0
1980-04-08,704.0
1980-04-09,809.0
1980-04-10,803.0
1980-04-11,1004.0
1980-04-12,993.0
1980-04-13,976.0
1980-04-14,984.0
1980-04-15,984.0
1980-04-16,1008.0
1980-04-17,1010.0
1980-04-18,1055.0
1980-04-19,1049.0
1980-04-20,1054.0
1980-04-21,1077.0
1980-04-22,1253.0
1980-04-23,1226.0
1980-04-24,1221.0
1980-04-25,1246.0
1980-04-26,1273.0
1980-04-27,1300.0
1980-04-28,1242.0
1980-04-29,1276.0
1980-04-30,1207.0
1980-05-01,1031.0
1980-05-02,1078.0
1980-05-03,1077.0
1980-05-04,1094.0
1980-05-05,1067.0
1980-05-06,1082.0
1980-05-07,920.0
1980-05-08,799.0
1980-05-09,738.0
1980-05-10,818.0
1980-05-11,821.0
1980-05-12,1133.0
1980-05-13,1136.0
1980-05-14,1153.0
1980-05-15,756.0
1980-05-16,438.0
1980-05-17,440.0
1980-05-18,606.0
1980-05-19,620.0
1980-05-20,1026.0
1980-05-21,1015.0
1980-05-22,1018.0
1980-05-23,1193.0
1980-05-24,1136.0
1980-05-25,1179.0
1980-05-26,1190.0
1980-05-27,1097.0
1980-05-28,711.0
1980-05-29,703.0
1980-05-30,500.0
1980-05-31,502.0
1980-06-01,830.0
1980-06-02,1174.0
1980-06-03,1350.0
1980-06-04,1375.0
1980-06-05,1375.0
1980-06-06,1367.0
1980-06-07,1363.0
1980-06-08,1086.0
1980-06-09,860.0
1980-06-10,647.0
1980-06-11,669.0
1980-06-12,671.0
1980-06-13,778.0
1980-06-14,766.0
1980-06-15,647.0
1980-06-16,636.0
1980-06-17,545.0
1980-06-18,452.0
1980-06-19,456.0
1980-06-20,431.0
1980-06-21,338.0
1980-06-22,279.0
1980-06-23,264.0
1980-06-24,276.0
1980-06-25,277.0
1980-06-26,286.0
1980-06-27,282.0
1980-06-28,324.0
1980-06-29,292.0
1980-06-30,315.0
1980-07-01,316.0
1980-07-02,186.0
1980-07-03,191.0
1980-07-04,212.0
1980-07-05,197.0
1980-07-06,201.0
1980-07-07,223.0
1980-07-08,278.0
1980-07-09,266.0
1980-07-10,316.0
1980-07-11,439.0
1980-07-12,442.0
1980-07-13,452.0
1980-07-14,439.0
1980-07-15,459.0
1980-07-16,439.0
1980-07-17,435.0
1980-07-18,436.0
1980-07-19,457.0
1980-07-20,419.0
1980-07-21,445.0
1980-07-22,441.0
1980-07-23,444.0
1980-07-24,448.0
1980-07-25,442.0
1980-07-26,437.0
1980-07-27,424.0
1980-07-28,409.0
1980-07-29,434.0
1980-07-30,462.0
1980-07-31,439.0
1980-08-01,431.0
1980-08-02,424.0
1980-08-03,424.0
1980-08-04,418.0
1980-08-05,427.0
1980-08-06,507.0
1980-08-07,487.0
1980-08-08,490.0
1980-08-09,506.0
1980-08-10,495.0
1980-08-11,499.0
1980-08-12,509.0
1980-08-13,504.0
1980-08-14,496.0
1980-08-15,459.0
1980-08-16,415.0
1980-08-17,499.0
1980-08-18,453.0
1980-08-19,392.0
1980-08-20,353.0
1980-08-21,349.0
1980-08-22,384.0
1980-08-23,380.0
1980-08-24,372.0
1980-08-25,365.0
1980-08-26,326.0
1980-08-27,314.0
1980-08-28,346.0
1980-08-29,316.0
1980-08-30,316.0
1980-08-31,344.0
1980-09-01,278.0
1980-09-02,300.0
1980-09-03,288.0
1980-09-04,304.0
1980-09-05,289.0
1980-09-06,296.0
1980-09-07,281.0
1980-09-08,204.0
1980-09-09,185.0
1980-09-10,172.0
1980-09-11,169.0
1980-09-12,156.0
1980-09-13,151.0
1980-09-14,153.0
1980-09-15,154.0
1980-09-16,168.0
1980-09-17,181.0
1980-09-18,187.0
1980-09-19,183.0
1980-09-20,179.0
1980-09-21,174.0
1980-09-22,170.0
1980-09-23,171.0
1980-09-24,171.0
1980-09-25,160.0
1980-09-26,195.0
1980-09-27,151.0
1980-09-28,150.0
1980-09-29,157.0
1980-09-30,160.0
1980-10-01,181.0
1980-10-02,180.0
1980-10-03,182.0
1980-10-04,191.0
1980-10-05,180.0
1980-10-06,183.0
1980-10-07,183.0
1980-10-08,161.0
1980-10-09,151.0
1980-10-10,148.0
1980-10-11,149.0
1980-10-12,143.0
1980-10-13,128.0
1980-10-14,110.0
1980-10-15,86.0
1980-10-16,81.0
1980-10-17,81.0
1980-10-18,82.0
1980-10-19,81.0
1980-10-20,80.0
1980-10-21,81.0
1980-10-22,82.0
1980-10-23,81.0
1980-10-24,81.0
1980-10-25,82.0
1980-10-26,82.0
1980-10-27,84.0
1980-10-28,82.0
1980-10-29,82.0
1980-10-30,81.0
1980-10-31,82.0
1980-11-01,81.0
1980-11-02,36.0
1980-11-03,7.0
1980-11-04,7.0
1980-11-05,43.0
1980-11-06,76.0
1980-11-07,73.0
1980-11-08,75.0
1980-11-09,75.0
1980-11-10,75.0
1980-11-11,76.0
1980-11-12,75.0
1980-11-13,76.0
1980-11-14,75.0
1980-11-15,73.0
1980-11-16,77.0
1980-11-17,162.0
1980-11-18,192.0
1980-11-19,208.0
1980-11-20,207.0
1980-11-21,206.0
1980-11-22,206.0
1980-11-23,207.0
1980-11-24,211.0
1980-11-25,210.0
1980-11-26,209.0
1980-11-27,209.0
1980-11-28,209.0
1980-11-29,209.0
1980-11-30,209.0
1980-12-01,208.0
1980-12-02,88.0
1980-12-03,89.0
1980-12-04,211.0
1980-12-05,207.0
1980-12-06,208.0
1980-12-07,206.0
1980-12-08,208.0
1980-12-09,207.0
1980-12-10,208.0
1980-12-11,208.0
1980-12-12,209.0
1980-12-13,206.0
1980-12-14,207.0
1980-12-15,205.0
1980-12-16,206.0
1980-12-17,208.0
1980-12-18,206.0
1980-12-19,208.0
1980-12-20,207.0
1980-12-21,206.0
1980-12-22,207.0
1980-12-23,206.0
1980-12-24,206.0
1980-12-25,206.0
1980-12-26,207.0
1980-12-27,206.0
1980-12-28,202.0
1980-12-29,207.0
1980-12-30,132.0
1980-12-31,79.0
1981-01-01,80.0
1981-01-02,80.0
1981-01-03,50.0
1981-01-04,32.0
1981-01-05,33.0
1981-01-06,33.0
1981-01-07,33.0
1981-01-08,31.0
1981-01-09,33.0
1981-01-10,33.0
1981-01-11,31.0
1981-01-12,32.0
1981-01-13,34.0
1981-01-14,24.0
1981-01-15,22.0
1981-01-16,22.0
1981-01-17,22.0
1981-01-18,22.0
1981-01-19,22.0
1981-01-20,16.0
1981-01-21,8.0
1981-01-22,9.0
1981-01-23,16.0
1981-01-24,21.0
1981-01-25,22.0
1981-01-26,21.0
1981-01-27,21.0
1981-01-28,22.0
1981-01-29,21.0
1981-01-30,21.0
1981-01-31,21.0
1981-02-01,22.0
1981-02-02,21.0
1981-02-03,21.0
1981-02-04,21.0
1981-02-05,21.0
1981-02-06,21.0
1981-02-07,21.0
1981-02-08,21.0
1981-02-09,21.0
1981-02-10,21.0
1981-02-11,21.0
1981-02-12,21.0
1981-02-13,21.0
1981-02-14,21.0
1981-02-15,21.0
1981-02-16,21.0
1981-02-17,21.0
1981-02-18,21.0
1981-02-19,21.0
1981-02-20,21.0
1981-02-21,21.0
1981-02-22,21.0
1981-02-23,21.0
1981-02-24,20.0
1981-02-25,21.0
1981-02-26,21.0
1981-02-27,21.0
1981-02-28,21.0
1981-03-01,21.0
1981-03-02,20.0
1981-03-03,20.0
1981-03-04,20.0
1981-03-05,20.0
1981-03-06,20.0
1981-03-07,20.0
1981-03-08,20.0
1981-03-09,20.0
1981-03-10,20.0
1981-03-11,20.0
1981-03-12,20.0
1981-03-13,20.0
1981-03-14,20.0
1981-03-15,20.0
1981-03-16,20.0
1981-03-17,20.0
1981-03-18,20.0
1981-03-19,20.0
1981-03-20,20.0
1981-03-21,20.0
1981-03-22,20.0
1981-03-23,20.0
1981-03-24,8.0
1981-03-25,8.0
1981-03-26,8.0
1981-03-27,8.0
1981-03-28,8.0
1981-03-29,8.0
1981-03-30,8.0
1981-03-31,8.0
1981-04-01,0.0
1981-04-02,0.0
1981-04-03,0.0
1981-04-04,0.0
1981-04-05,3.0
1981-04-06,3.0
1981-04-07,3.0
1981-04-08,3.0
1981-04-09,3.0
1981-04-10,3.0
1981-04-11,3.0
1981-04-12,0.0
1981-04-13,0.0
1981-04-14,0.0
1981-04-15,0.0
1981-04-16,0.0
1981-04-17,0.0
1981-04-18,0.0
1981-04-19,0.0
1981-04-20,0.0
1981-04-21,37.0
1981-04-22,21.0
1981-04-23,28.0
1981-04-24,25.0
1981-04-25,25.0
1981-04-26,24.0
1981-04-27,25.0
1981-04-28,26.0
1981-04-29,27.0
1981-04-30,25.0
1981-05-01,158.0
1981-05-02,151.0
1981-05-03,128.0
1981-05-04,71.0
1981-05-05,88.0
1981-05-06,96.0
1981-05-07,93.0
1981-05-08,108.0
1981-05-09,126.0
1981-05-10,149.0
1981-05-11,138.0
1981-05-12,116.0
1981-05-13,123.0
1981-05-14,143.0
1981-05-15,106.0
1981-05-16,57.0
1981-05-17,39.0
1981-05-18,76.0
1981-05-19,65.0
1981-05-20,44.0
1981-05-21,41.0
1981-05-22,34.0
1981-05-23,24.0
1981-05-24,26.0
1981-05-25,29.0
1981-05-26,22.0
1981-05-27,22.0
1981-05-28,24.0
1981-05-29,30.0
1981-05-30,40.0
1981-05-31,38.0
1981-06-01,65.0
1981-06-02,80.0
1981-06-03,51.0
1981-06-04,44.0
1981-06-05,74.0
1981-06-06,78.0
1981-06-07,83.0
1981-06-08,98.0
1981-06-09,132.0
1981-06-10,151.0
1981-06-11,159.0
1981-06-12,170.0
1981-06-13,185.0
1981-06-14,149.0
1981-06-15,155.0
1981-06-16,196.0
1981-06-17,210.0
1981-06-18,207.0
1981-06-19,237.0
1981-06-20,274.0
1981-06-21,238.0
1981-06-22,238.0
1981-06-23,281.0
1981-06-24,283.0
1981-06-25,289.0
1981-06-26,284.0
1981-06-27,287.0
1981-06-28,306.0
1981-06-29,297.0
1981-06-30,313.0
1981-07-01,333.0
1981-07-02,331.0
1981-07-03,332.0
1981-07-04,331.0
1981-07-05,307.0
1981-07-06,295.0
1981-07-07,290.0
1981-07-08,299.0
1981-07-09,299.0
1981-07-10,302.0
1981-07-11,307.0
1981-07-12,307.0
1981-07-13,311.0
1981-07-14,314.0
1981-07-15,331.0
1981-07-16,322.0
1981-07-17,322.0
1981-07-18,302.0
1981-07-19,295.0
1981-07-20,282.0
1981-07-21,278.0
1981-07-22,276.0
1981-07-23,289.0
1981-07-24,317.0
1981-07-25,312.0
1981-07-26,280.0
1981-07-27,271.0
1981-07-28,330.0
1981-07-29,303.0
1981-07-30,297.0
1981-07-31,286.0
1981-08-01,300.0
1981-08-02,298.0
1981-08-03,299.0
1981-08-04,300.0
1981-08-05,298.0
1981-08-06,303.0
1981-08-07,297.0
1981-08-08,307.0
1981-08-09,304.0
1981-08-10,311.0
1981-08-11,280.0
1981-08-12,276.0
1981-08-13,308.0
1981-08-14,305.0
1981-08-15,296.0
1981-08-16,291.0
1981-08-17,269.0
1981-08-18,280.0
1981-08-19,266.0
1981-08-20,266.0
1981-08-21,272.0
1981-08-22,270.0
1981-08-23,252.0
1981-08-24,243.0
1981-08-25,252.0
1981-08-26,257.0
1981-08-27,260.0
1981-08-28,264.0
1981-08-29,261.0
1981-08-30,254.0
1981-08-31,250.0
1981-09-01,295.0
1981-09-02,291.0
1981-09-03,252.0
1981-09-04,233.0
1981-09-05,204.0
1981-09-06,169.0
1981-09-07,160.0
1981-09-08,163.0
1981-09-09,167.0
1981-09-10,188.0
1981-09-11,168.0
1981-09-12,186.0
1981-09-13,205.0
1981-09-14,200.0
1981-09-15,190.0
1981-09-16,187.0
1981-09-17,200.0
1981-09-18,198.0
1981-09-19,185.0
1981-09-20,182.0
1981-09-21,190.0
1981-09-22,187.0
1981-09-23,178.0
1981-09-24,159.0
1981-09-25,145.0
1981-09-26,130.0
1981-09-27,133.0
1981-09-28,142.0
1981-09-29,151.0
1981-09-30,139.0
1981-10-01,145.0
1981-10-02,94.0
1981-10-03,85.0
1981-10-04,79.0
1981-10-05,54.0
1981-10-06,51.0
1981-10-07,53.0
1981-10-08,19.0
1981-10-09,8.0
1981-10-10,6.0
1981-10-11,6.0
1981-10-12,6.0
1981-10-13,6.0
1981-10-14,6.0
1981-10-15,8.0
1981-10-16,8.0
1981-10-17,6.0
1981-10-18,6.0
1981-10-19,11.0
1981-10-20,11.0
1981-10-21,11.0
1981-10-22,11.0
1981-10-23,11.0
1981-10-24,5.0
1981-10-25,9.0
1981-10-26,9.0
1981-10-27,9.0
1981-10-28,9.0
1981-10-29,9.0
1981-10-30,9.0
1981-10-31,9.0
1981-11-01,6.0
1981-11-02,6.0
1981-11-03,6.0
1981-11-04,6.0
1981-11-05,6.0